This is the latest recevied weather packets stored in our database for station/object DC4THF-13. If no packets are shown the sender has not sent any weather packets the latest 10 day(s).
| Time | Temp. | Humidity | Pressure | Rain* | Wind** | Luminosity | Snow |
|---|---|---|---|---|---|---|---|
| 1777107158 | 12.22° C | 55% | 1009.7 hPa | 0 mm | - | - | - |
| 1777106555 | 11.67° C | 56% | 1009.7 hPa | 0 mm | - | - | - |
| 1777105951 | 11.67° C | 57% | 1009.8 hPa | 0 mm | - | - | - |
| 1777105348 | 11.11° C | 59% | 1010.1 hPa | 0 mm | - | - | - |
| 1777104745 | 10.56° C | 60% | 1010.2 hPa | 0 mm | - | - | - |
| 1777104142 | 10.56° C | 61% | 1010.3 hPa | 0 mm | - | - | - |
| 1777103539 | 10° C | 62% | 1010.5 hPa | 0 mm | - | - | - |
| 1777102935 | 9.44° C | 62% | 1010.5 hPa | 0 mm | - | - | - |
| 1777102392 | 9.44° C | 62% | 1010.4 hPa | 0 mm | - | - | - |
| 1777101789 | 9.44° C | 62% | 1010.6 hPa | 0 mm | - | - | - |
| 1777101186 | 9.44° C | 62% | 1010.6 hPa | 0 mm | - | - | - |
| 1777100583 | 9.44° C | 62% | 1010.6 hPa | 0 mm | - | - | - |
| 1777099979 | 8.89° C | 64% | 1010.7 hPa | 0 mm | - | - | - |
| 1777099376 | 8.33° C | 67% | 1010.7 hPa | 0 mm | - | - | - |
| 1777098773 | 7.78° C | 71% | 1010.6 hPa | 0 mm | - | - | - |
| 1777098170 | 7.22° C | 74% | 1010.6 hPa | 0 mm | - | - | - |
| 1777097567 | 7.22° C | 76% | 1010.6 hPa | 0 mm | - | - | - |
| 1777096964 | 6.67° C | 77% | 1010.6 hPa | 0 mm | - | - | - |
| 1777096360 | 6.67° C | 78% | 1010.6 hPa | 0 mm | - | - | - |
| 1777095757 | 6.11° C | 79% | 1010.5 hPa | 0 mm | - | - | - |
| 1777095154 | 6.11° C | 80% | 1010.6 hPa | 0 mm | - | - | - |
| 1777094551 | 6.11° C | 80% | 1010.4 hPa | 0 mm | - | - | - |
| 1777093947 | 6.11° C | 80% | 1010.4 hPa | 0 mm | - | - | - |
| 1777093344 | 5.56° C | 80% | 1010.4 hPa | 0 mm | - | - | - |
| 1777092741 | 5.56° C | 80% | 1010.3 hPa | 0 mm | - | - | - |
* Rain latest hour (hover to see other rain measurements)
** Current wind speed in m/s (hover to see current wind gust speed)